Rechercher aéroport 
image banner adimage banner adimage banner ad
image banner ad

4CL5 - Mercy San Juan Hospital

Situé à Carmichael, United States

ICAO - 4CL5, IATA -

Données fournies par Airmate  

Information générale

Coordonnées: N38°40'9" W121°18'52"
Élévation : 169 feet MSL.
Variation magnétique : 16° East
Voir autres Aéroports à California

Données opérationnelles

Special qualification required
Heure actuelle UTC:
Heure actuelle locale:
Météo à : KMCC - Mc Clellan Airfield ( 7 km )
METAR: KMCC 191215Z AUTO 00000KT 10SM BKN028 07/05 A3001 RMK AO2
TAF: KMCC 191134Z 1912/2012 VRB05KT P6SM SCT250 FM192100 19008KT P6SM BKN200 FM200700 15013KT P6SM -RA OVC050
Voir NOTAMs / SUP AIP / TFR affectant cet aéroport [VIEW]
Fréquences de communication: [VIEW]

Pistes:

Coordonnées de l'aéroport

Adresse: Carmichael United States

Vue satellite de 4CL5